Location: Engelmannsreuth
(49.8125°N, 11.6497°E)
Time: 17:15:22
(UTC+00:00)

Aureole 2 Rocket - Pass Details

Date: 17 February 2020
Orbit: 308 x 450 km, 73.9° (Epoch: 28 March)

Event Time Altitude Azimuth Distance (km) Brightness Sun altitude
Exits shadow 02:43:50 - 60° (ENE) 1,913 6.5 -35.1°
Enters shadow 03:50:31 -50° 322° (NW) 10,256 9.3 -24.8°
Maximum altitude 04:17:13 38° 62° (ENE) 585 3.4 -20.6°
